Location: Buckland
(65.9785°N, 161.1281°W)
Time: 22:06:35
(UTC+00:00)

SPROUT - Pass Details

Date: 24 January 2021
Orbit: 597 x 610 km, 97.9° (Epoch: 07 March)

Event Time Altitude Azimuth Distance (km) Brightness Sun altitude
Exits shadow 08:18:19 11° 351° (N) 1,942 ? -36.6°
Drops below altitude 10° 08:18:26 10° 350° (N) 1,980 ? -36.6°
Sets 08:21:00 0° 335° (NNW) 2,889 ? -36.8°
